{"data":{"norad_id":68499,"epoch":"2026-05-24T20:25:45.528960Z","epoch_age_seconds":83862,"freshness":"FRESH","line1":"1 68499U 26067CM  26144.85122140  .00001488  00000+0  15420-3 0  9992","line2":"2 68499  97.7569 103.4310 0002955 100.5469 259.6083 14.91490574  8240","mean_motion":14.91490574,"eccentricity":0.0002955,"inclination_deg":97.7569,"raan_deg":103.431,"arg_perigee_deg":100.5469,"mean_anomaly_deg":259.6083,"bstar":0.0001542,"rev_number":824,"period_min":96.547710398068,"perigee_km":591.22697787511,"apogee_km":595.34708947901,"semimajor_km":6971.4240336771,"source":"CELESTRAK","updated_at":"2026-05-25T13:38:07.878530Z"}}